Voltar ao catálogo

JILIN-1 GAOFEN 03D-48

AtivoCiênciaSSO
NORAD 54695·PAYLOAD·🇨🇳 China
Este nome de satélite ainda não foi confirmado por fontes oficiais.

Lançado Dec 9, 2022 de Yellow Sea Launch Area

Loading…

Próximas Passagens (próximas 24 horas)

TLE

AtualizadoSource: Space-Track

Época: Sep 14, 2026, 15:22 UTC

1 54695U 22167P   26257.64028310  .00009015  00000-0  25237-3 0  9990
2 54695  97.6952  71.1329 0006679 148.4626 211.7019 15.36866873209129

Acompanhe JILIN-1 GAOFEN 03D-48 em tempo real com AllMySat

Download on the App Store